Regional Weather Roundup
Issued by NWS

Home | Current Version | Previous Version | Text Only | Print | Product List | Glossary On
Versions: 1 2 3 4 5 6 7 8 9 10 11 12 13 14 15 16 17 18 19 20 21 22 23 24 25 26 27
000
ASUS46 KSEW 200910
RWRWA

WASHINGTON REGIONAL WEATHER ROUNDUP
NATIONAL WEATHER SERVICE SEATTLE WA
100 AM PST MON FEB 20 2017

NOTE:"FAIR" INDICATES FEW OR NO CLOUDS BELOW 12,000 FEET WITH NO
SIGNIFICANT WEATHER AND/OR OBSTRUCTIONS TO VISIBILITY.

WAZ507-509-555>559-201000-
SEATTLE, TACOMA, EVERETT, AND VICINITY

CITY           SKY/WX    TMP DP  RH WIND       PRES   REMARKS
EVERETT        CLOUDY    43  38  82 SE7       29.61S
BOEING FIELD   MOCLDY    41  39  93 CALM      29.61F
RENTON         MOCLDY    41  39  93 CALM      29.61F
SEATAC AIRPORT MOCLDY    41  36  82 CALM      29.60F
JBLM-MCCHORD   CLOUDY    37  37 100 CALM      29.59F
PUYALLUP         N/A     41  39  93 CALM      29.59F
BREMERTON      CLOUDY    39  37  93 CALM      29.63S
JBLM-FT LEWIS  CLOUDY    39  39 100 CALM      29.59F
TACOMA NARROWS MOCLDY    40  39  97 CALM      29.60F
$$

WAZ001-503-506-510-514-515-201000-
NORTH INTERIOR

CITY           SKY/WX    TMP DP  RH WIND       PRES   REMARKS
BELLINGHAM     CLOUDY    46  38  73 S15G22    29.59R
FRIDAY HARBOR  CLOUDY    44  39  82 SE7       29.60R
EASTSOUND      MOCLDY    45  39  81 S8        29.58S
PORT ANGELES   CLOUDY    38  37  97 CALM      29.58R
EDIZ HOOK      PTSUNNY   42  39  88 S3        29.59R
PORT TOWNSEND  FAIR      37  37 100 CALM      29.60S
NAS WHIDBEY    CLOUDY    46  37  71 S16       29.63S
ARLINGTON      CLOUDY    45  34  65 SE9       29.64S
BURLINGTON     CLOUDY    46  37  71 S6        29.61R
$$

WAZ020-022-039-040-504-511-512-201000-
SOUTHWEST INTERIOR

CITY           SKY/WX    TMP DP  RH WIND       PRES   REMARKS
SHELTON        CLOUDY    40  38  93 CALM      29.58F
OLYMPIA        LGT RAIN  39  39 100 CALM      29.60F
CHEHALIS       CLOUDY    43  43 100 SW5       29.60F
KELSO          CLOUDY    43  42  97 CALM      29.61F
VANCOUVER      LGT RAIN  43  42  97 E8        29.61F
SCAPPOOSE, OR  LGT RAIN  42  42 100 CALM      29.61F FOG
PORTLAND, OR   LGT RAIN  41  40  96 E15       29.62F
$$

WAZ021-516-517-201000-
WASHINGTON COAST

CITY           SKY/WX    TMP DP  RH WIND       PRES   REMARKS
FORKS          CLOUDY    39  39 100 NE5       29.57S
HOQUIAM        CLOUDY    43  42  97 NE8       29.56F
ASTORIA, OR    LGT RAIN  42  40  92 E7        29.57S
$$

WAZ019-023-024-040-567>569-201000-
CASCADE MOUNTAINS AND COLUMBIA GORGE

CITY           SKY/WX    TMP DP  RH WIND       PRES   REMARKS
STAMPEDE PASS  NOT AVBL
TROUTDALE, OR  LGT RAIN  44  40  85 E8        29.63S
THE DALLES, OR CLOUDY    38  37  97 CALM      29.67F FOG
$$

WAZ026-027-041>044-520-521-201000-
EAST SLOPES

CITY           SKY/WX    TMP DP  RH WIND       PRES   REMARKS
OMAK           CLOUDY    36  31  82 SE3       29.66S
WENATCHEE      CLOUDY    34  34 100 CALM      29.66R
ELLENSBURG     MOCLDY    33  29  85 NE5       29.61F
YAKIMA         CLOUDY    35  32  88 SW3       29.64F
SUNNYSIDE ARPT CLOUDY    35  32  90 CALM      29.65S
$$

WAZ028-034-035-201000-
COLUMBIA BASIN

CITY           SKY/WX    TMP DP  RH WIND       PRES   REMARKS
EPHRATA        CLOUDY    33  29  85 N3        29.65R
MOSES LAKE     CLOUDY    29  26  89 N7        29.66S
PASCO          CLOUDY    36  32  85 E5        29.68R
HERMISTON, OR  LGT RAIN  35  35 100 VRB3      29.66R FOG
$$

WAZ036>038-201000-
NORTHEAST WASHINGTON

CITY           SKY/WX    TMP DP  RH WIND       PRES   REMARKS
SPOKANE GEIGER MOCLDY    34  31  88 SE6       29.66F
SPOKANE FELTS  MOCLDY    32  32 100 CALM      29.68F FOG
FAIRCHILD AFB  MOCLDY    33  33 100 SE7       29.65F
COEURDALENE,ID MOCLDY    31  30  96 E6        29.69F
DEER PARK      CLOUDY    32  31  96 CALM      29.68F
$$

WAZ029>033-201000-
SOUTHEAST WASHINGTON

CITY           SKY/WX    TMP DP  RH WIND       PRES   REMARKS
PULLMAN        MOCLDY    36  32  85 E9        29.69F
LEWISTON, ID   CLOUDY    40  34  79 E5        29.71F
WALLA WALLA    CLOUDY    48  35  60 S13       29.66S
PENDLETON, OR  RAIN      43  38  82 SE9       29.66R
$$




USA.gov is the U.S. government's official web portal to all federal, state and local government web resources and services.